Location: Del Amo
(33.8464°N, 118.2104°W)
Time: 15:59:59
(UTC+00:00)

SR - Visible Passes

Search period start: 13 September 2024 00:00
Search period end: 23 September 2024 00:00
Orbit: 579 x 855 km, 66.7° (Epoch: 12 September)

Date Brightness Start Highest point End Pass type
(mag) Time Alt. Az. Time Alt. Az. Time Alt. Az.
18 Sep ? 04:35:06 10° N 04:35:11 10° N 04:35:11 10° N visible
20 Sep ? 04:30:19 10° N 04:31:20 16° N 04:31:20 16° N visible
21 Sep ? 03:38:27 10° NNE 03:39:52 14° NNE 03:39:52 14° NNE visible
21 Sep ? 05:18:47 10° NW 05:19:03 11° NW 05:19:03 11° NW visible
22 Sep ? 04:25:46 10° NNW 04:27:39 24° NNW 04:27:39 24° NNW visible
